Location: München
(48.1351°N, 11.5820°E)
Time: 06:34:05
(UTC+02:00)

ISS - Visible Passes

Search period start: 27 June 2019 00:00
Search period end: 07 July 2019 00:00
Orbit: 407 x 418 km, 51.6° (Epoch: 27 June)

Date Brightness Start Highest point End Pass type
(mag) Time Alt. Az. Time Alt. Az. Time Alt. Az.
01 Jul -1.4 04:13:53 10° SSE 04:15:38 14° SE 04:17:21 10° ESE visible
03 Jul -2.5 04:10:13 12° SSW 04:12:48 29° SE 04:15:43 10° E visible
04 Jul -2.0 03:22:24 17° SSE 03:23:21 19° SE 03:25:45 10° E visible
05 Jul -1.3 02:34:32 11° SE 02:34:32 11° SE 02:35:14 10° ESE visible
05 Jul -3.6 04:07:20 14° SW 04:10:05 61° SSE 04:13:21 10° ENE visible
06 Jul -3.1 03:19:25 29° SSW 03:20:32 39° SSE 03:23:39 10° ENE visible
